This is the latest recevied weather packets stored in our database for station/object KF0TNT. If no packets are shown the sender has not sent any weather packets the latest 10 day(s).
| Time | Temp. | Humidity | Pressure | Rain* | Wind** | Luminosity | Snow |
|---|---|---|---|---|---|---|---|
| 1778014814 | 1.67° C | 96% | 1012.7 hPa | 0.51 mm | - | 125 W/m² | - |
| 1778014512 | 1.67° C | 96% | 1013.2 hPa | 0 mm | - | 91 W/m² | - |
| 1778014209 | 1.67° C | 96% | 1012.8 hPa | 0.51 mm | - | 140 W/m² | - |
| 1778013907 | 1.67° C | 96% | 1012.9 hPa | 0.51 mm | - | 148 W/m² | - |
| 1778013604 | 1.67° C | 95% | 1013.2 hPa | 0 mm | - | 119 W/m² | - |
| 1778013300 | 1.67° C | 95% | 1013 hPa | 0 mm | - | 140 W/m² | - |
| 1778012996 | 1.67° C | 96% | 1013.2 hPa | 0 mm | - | 139 W/m² | - |
| 1778012693 | 1.67° C | 96% | 1013.3 hPa | 0 mm | - | 140 W/m² | - |
| 1778012389 | 1.67° C | 95% | 1013 hPa | 0 mm | - | 193 W/m² | - |
| 1778012086 | 1.67° C | 95% | 1013 hPa | 0.51 mm | - | 141 W/m² | - |
| 1778011784 | 1.11° C | 94% | 1013.3 hPa | 0.51 mm | - | 173 W/m² | - |
| 1778011482 | 1.67° C | 93% | 1013.4 hPa | 0.51 mm | - | 122 W/m² | - |
| 1778011177 | 1.67° C | 94% | 1013.4 hPa | 0.51 mm | - | 133 W/m² | - |
| 1778010874 | 1.67° C | 94% | 1013.3 hPa | 0 mm | - | 163 W/m² | - |
| 1778010572 | 1.67° C | 94% | 1013.4 hPa | 0 mm | - | 174 W/m² | - |
| 1778010269 | 1.67° C | 94% | 1013.4 hPa | 0 mm | - | 144 W/m² | - |
| 1778009969 | 1.67° C | 94% | 1013.4 hPa | 0 mm | - | 140 W/m² | - |
| 1778009667 | 1.67° C | 94% | 1013.5 hPa | 0 mm | - | 140 W/m² | - |
| 1778009365 | 1.67° C | 94% | 1013.5 hPa | 0 mm | - | 138 W/m² | - |
| 1778009063 | 1.67° C | 93% | 1013.6 hPa | 0 mm | - | 133 W/m² | - |
| 1778008760 | 1.67° C | 93% | 1013.6 hPa | 0 mm | - | 135 W/m² | - |
| 1778008459 | 1.67° C | 93% | 1013.6 hPa | 0 mm | - | 146 W/m² | - |
| 1778008155 | 1.67° C | 92% | 1013.9 hPa | 0 mm | - | 118 W/m² | - |
| 1778007850 | 1.67° C | 92% | 1014 hPa | 0 mm | - | 102 W/m² | - |
| 1778007546 | 1.67° C | 92% | 1013.8 hPa | 0 mm | - | 117 W/m² | - |
* Rain latest hour (hover to see other rain measurements)
** Current wind speed in m/s (hover to see current wind gust speed)